Regional Weather Roundup
Issued by NWS

Home | Current Version | Previous Version | Text Only | Print | Product List | Glossary On
Versions: 1 2 3 4 5 6 7 8 9 10 11 12 13 14 15 16 17 18 19 20 21 22 23 24 25 26 27 28 29 30 31 32 33 34 35 36 37 38 39 40 41 42 43 44 45 46 47 48 49 50
000
ASUS44 KFWD 230115
RWRTX
NORTH TEXAS HOURLY WEATHER ROUNDUP
NATIONAL WEATHER SERVICE FORT WORTH TX
800 PM CDT THU JUN 22 2017

NOTE: "FAIR" INDICATES FEW OR NO CLOUDS BELOW 12,000 FEET WITH NO
SIGNIFICANT WEATHER AND/OR OBSTRUCTIONS TO VISIBILITY.

TXZ118-119-230200-
DALLAS/FORT WORTH METROPLEX

CITY           SKY/WX    TMP DP  RH WIND       PRES   REMARKS
DFW AIRPORT    MOCLDY    89  72  56 S3        29.63S HX  96
DALLAS LOVE    MOCLDY    90  71  53 W3        29.63S HX  96
FTW MEACHAM    CLOUDY    89  71  55 CALM      29.64R HX  95
DAL-EXECUTIVE  CLOUDY    85  75  72 CALM      29.64S HX  93
FTW-ALLIANCE   CLOUDY    90  70  51 CALM      29.64S HX  95
FTW-NAS-JRB    CLOUDY    89  70  53 SE5       29.64S HX  94
FTW-SPINKS     PTCLDY    87  71  58 CALM      29.66S HX  93
ARLINGTON      PTCLDY    87  74  64 E7        29.65R HX  95
GRAND PRAIRIE  CLEAR     88  72  58 SE3       29.65S HX  94
ADDISON        CLEAR     88  72  58 NW3       29.64S HX  94
MESQUITE       PTCLDY    88  70  55 CALM      29.64R HX  92
LANCASTER      PTCLDY    86  72  62 CALM      29.65R HX  91
$$

TXZ091>094-102>105-117-120-121-131>134-230200-
NORTH CENTRAL TEXAS

CITY           SKY/WX    TMP DP  RH WIND       PRES   REMARKS
SHRMAN/DENISON MOCLDY    87  70  57 NE3       29.65S HX  92
GAINESVILLE    CLOUDY    86  69  56 CALM      29.67S HX  90
BOWIE          CLEAR     86  72  62 CALM      29.66S HX  92
BRIDGEPORT     CLEAR     87  68  52 SE5       29.66S HX  91
DECATUR        CLEAR     87  71  59 E6        29.66S HX  93
DENTON         CLOUDY    87  73  62 SE7       29.64R HX  94
MCKINNEY       PTCLDY    86  75  69 NE3       29.64S HX  95
BONHAM         CLEAR     82  73  74 CALM      29.65R
GREENVILLE     PTCLDY    88  73  62 CALM      29.64R HX  96
ROCKWALL       PTCLDY    85  73  65 CALM      29.64S HX  92
TERRELL        PTCLDY    86  72  62 CALM      29.64R HX  92
WAXAHACHIE     CLEAR     84  74  71 CALM      29.66S HX  91
CLEBURNE       PTCLDY    86  73  66 E6        29.68R HX  93
GRANBURY       PTCLDY    89  70  52 E8        29.66R HX  94
$$

TXZ083>090-098>101-113>116-127>130-139>142-154-155-230200-
WESTERN NORTH TEXAS

CITY           SKY/WX    TMP DP  RH WIND       PRES   REMARKS
WICHITA FALLS  PTCLDY    89  68  49 SE9       29.63S HX  93
WF-KICKAPOO    CLEAR     91  64  39 SE6       29.65S HX  92
VERNON         CLEAR     94  51  22 SE8       29.64S HX  91
ABILENE        CLEAR     93  60  33 SE6       29.67F HX  93
ABILENE-DYESS  CLEAR     95  63  35 E9        29.65F HX  96
GRAHAM         CLEAR     93  62  35 CALM      29.63S HX  94
BRECKENRIDGE   CLEAR     93  56  28 SE5       29.65S HX  91
CISCO          CLEAR     88  63  42 SE7       29.69S
EASTLAND       CLEAR     88  64  44 SE6       29.68R
RANGER         CLEAR     86  66  50 S5        29.68S
MINERAL WELLS  CLEAR     89  69  51 SE7       29.63R HX  93
STEPHENVILLE   CLEAR     88  65  45 CALM      29.70S HX  90
COMANCHE       CLEAR     88  67  49 E3        29.68S HX  91
BROWNWOOD      LGT RAIN  91  57  31 E6        29.67S HX  90
COLEMAN        CLEAR     95  55  25 SE7       29.68S HX  93
$$

TXZ143>147-156>162-174-175-230200-
CENTRAL TEXAS

CITY           SKY/WX    TMP DP  RH WIND       PRES   REMARKS
WACO           CLOUDY    88  72  58 E5        29.65S HX  94
WACO-TSTC      CLEAR     86  73  66 NE5       29.66R HX  93
WACO-MCGREGOR  MOCLDY    89  73  59 E6        29.66R HAZE    HX  97
HILLSBORO      PTCLDY    85  75  70 SE3       29.66S HX  94
CORSICANA      PTCLDY    86  73  65 CALM      29.66R HX  93
MEXIA          PTCLDY    83  73  70 CALM      29.66S
HEARNE         MOCLDY    84  77  80 CALM      29.67S HX  94
CAMERON        MOCLDY    85  75  70 SE6       29.66R HX  93
TEMPLE         CLOUDY    89  72  56 E9        29.66R HX  96
KILLEEN        PTCLDY    92  65  39 SE3       29.65R HX  94
KILLEEN-SKYLRK PTCLDY    92  71  50 E7        29.66R HX  98
FORT HOOD      PTCLDY   N/A N/A N/A E9        29.63R
HAMILTON       CLEAR     91  66  44 E6        29.69R HX  93
LAMPASAS       CLEAR     91  67  45 CALM      29.67S HX  93
$$

TXZ095>097-106>112-122>126-135>138-148>153-164>167-230200-
EAST TEXAS

CITY           SKY/WX    TMP DP  RH WIND       PRES   REMARKS
PARIS            N/A     84  75  74 E3        29.63S HX  92
SULPHUR SPRNGS CLEAR     85  75  70 E3        29.64F HX  94
MOUNT PLEASANT CLOUDY    81  75  82 CALM      29.63S
GILMER         CLOUDY    81  76  85 CALM      29.62S
MINEOLA        CLOUDY    84  77  79 SW3       29.63S HX  94
TYLER          CLOUDY    83  77  82 SW6       29.65R HX  92
LONGVIEW       CLOUDY    79  78  97 SW7       29.62S
MARSHALL       CLOUDY    77  74  90 W5        29.63R
ATHENS         MOCLDY    82  73  74 CALM      29.65R
PALESTINE      CLOUDY    80  77  91 SE5       29.68R
JACKSONVILLE   MOCLDY    78  76  94 S6        29.69S
HENDERSON      CLOUDY    78  76  95 SW3       29.66S
CENTER         RAIN      80  78  95 SW6       29.67R
NACOGDOCHES    CLOUDY    79  73  83 MISG      29.66R
LUFKIN         CLOUDY    77  76  96 SW7       29.68R
$$

SUPPLEMENTAL OBSERVATIONS (NWS FORT WORTH AREA)

CITY           SKY/WX    TMP DP  RH WIND       PRES   REMARKS
DENISON DAM      N/A     90  68  48 W1          N/A  HX  93
CADDO GRASSLND   N/A     84  77  79 CALM        N/A  HX  94
PAT MAYSE LAKE   N/A     84  79  84 SW2         N/A  HX  96
GREENVILLE       N/A     86  73  66 CALM        N/A  HX  93
CEDAR HILL       N/A     86  73  66 S1          N/A  HX  93
LBJ GRASSLAND    N/A     88  72  58 E3          N/A  HX  94
POSSUM KINGDOM   N/A     93  61  33 E3          N/A  HX  93
GRANBURY         N/A     90  72  55 SE9         N/A  HX  96
MCGREGOR         N/A     90  68  48 E6          N/A  HX  93
TEMPLE           N/A     90  70  51 E8          N/A  HX  95
ATHENS           N/A     84  73  70 SW1         N/A  HX  91
$$

SUPPLEMENTAL OBSERVATIONS (NWS NORMAN AREA)

CITY           SKY/WX    TMP DP  RH WIND       PRES   REMARKS
GOODLETT         N/A     96  54  24 SE14      29.62S HX  93
ODELL            N/A     91  59  34 SE9       29.64F HX  90
CROWELL          N/A     93  61  34 SE10      29.64S HX  93
KNOX CITY        N/A     97  52  22 SE10      29.64S HX  94
SEYMOUR          N/A     96  64  34 SE9       29.64S HX  98
MILLERS CREEK    N/A     91  63  38 SE6         N/A  HX  92
$$

SUPPLEMENTAL OBSERVATIONS (NWS SAN ANGELO AREA)

CITY           SKY/WX    TMP DP  RH WIND       PRES   REMARKS
HASKELL          N/A     93  52  24 S7        29.65S HX  90
THROCKMORTON     N/A     90  65  43 E3        29.66S HX  91
STAMFORD         N/A     96  57  27 SE7       29.66S HX  94
CLYDE            N/A     92  63  38 SE3       29.71R HX  92
HAMBY            N/A     97  57  26 SE3         N/A  HX  95
IVIE RESERVOIR   N/A     97  55  24 E6          N/A  HX  95
COLORADO BEND    N/A     91  59  33 SE2         N/A  HX  90
$$

SUPPLEMENTAL OBSERVATIONS (NWS SHREVEPORT AREA)

CITY           SKY/WX    TMP DP  RH WIND       PRES   REMARKS
CLARKSVILLE      N/A     82  72  69 NE3         N/A
TEXARKANA        N/A     81  75  83 N6          N/A
LINDEN           N/A     82  75  78 CALM        N/A
GILMER           N/A     82  77  83 N2          N/A  HX  91
HENDERSON        N/A     79  77  94 SW7         N/A
LUFKIN           N/A     79  75  89 MISG        N/A
S SABINE NF      N/A     79  73  83 SW2         N/A
$$

SUPPLEMENTAL OBSERVATIONS ARE A COLLECTION OF AUTOMATED INSTRUMENTS
THAT ARE MAINTAINED BY A VARIETY OF FEDERAL AND STATE AGENCIES.
CERTAIN ELEMENTS...SUCH AS HUMIDITY VALUES AND SUSTAINED WIND
SPEEDS...MAY BE APPROXIMATED.




USA.gov is the U.S. government's official web portal to all federal, state and local government web resources and services.